sat.trackr.live / text

‹ back to catalog

BANDWAGON-2 OBJECT Y

NORAD 62399 · 2024-247Y

PAYLOAD ACTIVE UNKNOWN

§ Identity

Operator
Country
TBD
Launch date
2024-12-21
Launch site
AFWTR
Launch vehicle
Mass (kg)
RCS (m²)

External: N2YO · Heavens-Above · Gunter

§ Orbital elements

Epoch: 2026-05-24T22:24:14.546016Z

Period
93.08 min
Inclination
44.9982°
Eccentricity
0.0006095
Mean motion
15.46978236 rev/d
Perigee alt
421.4 km
Apogee alt
429.7 km
Semi-major
6,803.7 km
B*
6.3009e-4
RAAN
26.5308°
Arg perigee
153.2866°
Mean anomaly
206.8340°
Rev number
7,980

§ Raw data

BANDWAGON-2 OBJECT Y1 62399U 24247Y   26144.93350169  .00032302  00000+0  63009-3 0  99912 62399  44.9982  26.5308 0006095 153.2866 206.8340 15.46978236 79800

JSON: /api/v1/satellites/62399 · /tle

For live sub-satellite position, see the globe view (requires WebGL).

§ Visibility from observer

Set your observer location to see the next 7 days of passes ≥ 10°. The values pass through the URL so the page stays shareable.

No JS? Fill the form by hand. The geolocation button needs JavaScript.